Location: Eppenbrunn
(49.1158°N, 7.5601°E)
Time: 19:56:13
(UTC+00:00)

IGS 5A - Pass Details

Date: 13 August 2020
Orbit: 583 x 588 km, 97.6° (Epoch: 27 September)

Event Time Altitude Azimuth Distance (km) Brightness Sun altitude
Exits shadow 21:52:20 - 237° (WSW) 1,994 6.1 -22.7°
Reaches altitude 10° 21:52:43 10° 241° (WSW) 1,915 6.0 -22.7°
Maximum altitude 21:54:50 14° 272° (W) 1,693 6.1 -22.9°
Drops below altitude 10° 21:56:57 10° 303° (WNW) 1,924 6.9 -23.0°
Sets 22:00:10 0° 330° (NNW) 2,832 8.4 -23.2°
